| time (UTC) | temp F | wind direction | speed knots | gust knots | rain 1hr in | rain 24hr in | rain mn in | humidity % | barometer mb |
| 20260504044535 | 59 | 174 | 0.0 | 2.6 | 0.00 | 0.00 | 0.00 | 66 | 1003.5 |
| 20260504043023 | 58 | 219 | 0.0 | 2.6 | 0.00 | 0.00 | 0.00 | 66 | 1003.6 |
| 20260504041520 | 59 | 284 | 0.0 | 1.7 | 0.00 | 0.00 | 0.00 | 66 | 1003.6 |
| 20260504040020 | 59 | 142 | 0.0 | 4.3 | 0.00 | 0.00 | 0.00 | 65 | 1003.8 |
| 20260504034531 | 59 | 205 | 0.0 | 3.5 | 0.00 | 0.00 | 0.00 | 65 | 1003.9 |
| 20260504033025 | 60 | 227 | 0.0 | 3.5 | 0.00 | 0.00 | 0.00 | 64 | 1004.0 |
| 20260504031519 | 60 | 229 | 0.9 | 3.5 | 0.00 | 0.00 | 0.00 | 64 | 1004.1 |
| 20260504030018 | 60 | 240 | 0.0 | 1.7 | 0.00 | 0.00 | 0.00 | 64 | 1004.2 |
| 20260504024521 | 60 | 240 | 0.0 | 0.9 | 0.00 | 0.00 | 0.00 | 63 | 1004.2 |
| 20260504023017 | 60 | 240 | 0.0 | 1.7 | 0.00 | 0.00 | 0.00 | 62 | 1004.2 |
| 20260504021520 | 60 | 223 | 0.0 | 0.9 | 0.00 | 0.00 | 0.00 | 61 | 1004.0 |
| 20260504020017 | 60 | 223 | 0.0 | 1.7 | 0.00 | 0.00 | 0.00 | 60 | 1004.0 |
| 20260504014518 | 61 | 223 | 0.0 | 1.7 | 0.00 | 0.00 | 0.00 | 58 | 1003.8 |
| 20260504013022 | 63 | 223 | 0.0 | 0.9 | 0.00 | 0.00 | 0.00 | 55 | 1003.6 |
| 20260504011513 | 64 | 223 | 0.0 | 0.0 | 0.00 | 0.00 | 0.00 | 53 | 1003.5 |
| 20260504010013 | 65 | 223 | 0.0 | 1.7 | 0.00 | 0.00 | 0.00 | 50 | 1003.4 |
| 20260504004515 | 66 | 223 | 0.0 | 2.6 | 0.00 | 0.00 | 0.00 | 48 | 1003.4 |
| 20260504003012 | 67 | 221 | 0.0 | 4.3 | 0.00 | 0.00 | 0.00 | 46 | 1003.5 |
| 20260504001512 | 68 | 284 | 0.0 | 6.1 | 0.00 | 0.00 | 0.00 | 45 | 1003.4 |
| 20260504000011 | 68 | 313 | 0.9 | 8.7 | 0.00 | 0.00 | 0.00 | 44 | 1003.4 |
| 20260503234511 | 69 | 329 | 1.7 | 7.0 | 0.00 | 0.00 | 0.00 | 45 | 1003.4 |
| 20260503233010 | 69 | 207 | 1.7 | 7.8 | 0.00 | 0.00 | 0.00 | 45 | 1003.4 |
| 20260503231509 | 68 | 221 | 2.6 | 10.4 | 0.00 | 0.00 | 0.00 | 45 | 1003.5 |
| 20260503230009 | 68 | 221 | 2.6 | 13.9 | 0.00 | 0.00 | 0.00 | 44 | 1003.7 |
| 20260503224506 | 68 | 253 | 1.7 | 7.8 | 0.00 | 0.00 | 0.00 | 44 | 1003.8 |
| 20260503223006 | 68 | 261 | 0.9 | 13.0 | 0.00 | 0.00 | 0.00 | 44 | 1003.9 |
| 20260503221503 | 68 | 238 | 3.5 | 13.9 | 0.00 | 0.00 | 0.00 | 43 | 1004.1 |
| 20260503220002 | 68 | 207 | 1.7 | 13.0 | 0.00 | 0.00 | 0.00 | 43 | 1004.3 |
| 20260503214600 | 67 | 278 | 0.9 | 10.4 | 0.00 | 0.00 | 0.00 | 44 | 1004.4 |
| 20260503213059 | 68 | 235 | 2.6 | 8.7 | 0.00 | 0.00 | 0.00 | 42 | 1004.6 |
| 20260503211608 | 68 | 214 | 3.5 | 14.8 | 0.00 | 0.00 | 0.00 | 42 | 1004.7 |
| 20260503210057 | 67 | 141 | 4.3 | 12.2 | 0.00 | 0.00 | 0.00 | 42 | 1004.9 |
| 20260503204556 | 67 | 232 | 6.1 | 10.4 | 0.00 | 0.00 | 0.00 | 44 | 1005.2 |
| 20260503203050 | 66 | 195 | 6.1 | 13.0 | 0.00 | 0.00 | 0.00 | 45 | 1005.6 |
| 20260503201546 | 64 | 221 | 4.3 | 14.8 | 0.00 | 0.00 | 0.00 | 50 | 1006.1 |
| 20260503200044 | 64 | 158 | 2.6 | 10.4 | 0.00 | 0.00 | 0.00 | 49 | 1006.5 |
| 20260503194539 | 62 | 263 | 1.7 | 17.4 | 0.00 | 0.00 | 0.00 | 51 | 1006.6 |
| 20260503193047 | 62 | 207 | 7.0 | 16.5 | 0.00 | 0.00 | 0.00 | 50 | 1006.6 |
| 20260503191538 | 61 | 267 | 7.0 | 14.8 | 0.00 | 0.00 | 0.00 | 50 | 1006.9 |
| 20260503190036 | 62 | 207 | 8.7 | 20.0 | 0.00 | 0.00 | 0.00 | 50 | 1007.1 |
| 20260503184530 | 60 | 191 | 4.3 | 12.2 | 0.00 | 0.00 | 0.00 | 54 | 1007.3 |
| 20260503183035 | 58 | 223 | 7.0 | 25.2 | 0.00 | 0.00 | 0.00 | 56 | 1007.7 |
| 20260503181540 | 58 | 222 | 6.1 | 21.7 | 0.00 | 0.00 | 0.00 | 56 | 1007.9 |
| 20260503180021 | 59 | 218 | 5.2 | 15.6 | 0.00 | 0.00 | 0.00 | 57 | 1008.4 |
| 20260503174520 | 58 | 215 | 10.4 | 19.1 | 0.00 | 0.00 | 0.00 | 58 | 1008.9 |
| 20260503173037 | 58 | 291 | 5.2 | 13.0 | 0.00 | 0.00 | 0.00 | 61 | 1009.4 |
| 20260503171515 | 56 | 223 | 6.1 | 14.8 | 0.00 | 0.00 | 0.00 | 65 | 1009.7 |
| 20260503150107 | 56 | 190 | 2.6 | 8.7 | 0.00 | 0.00 | 0.00 | 58 | 1011.1 |
| 20260503081516 | 48 | 132 | 0.9 | 6.1 | 0.00 | 0.00 | 0.00 | 57 | 1012.9 |
| 20260503071506 | 47 | 227 | 0.0 | 7.0 | 0.00 | 0.00 | 0.00 | 59 | 1013.1 |
| 20260503060115 | 47 | 227 | 0.9 | 3.5 | 0.00 | 0.00 | 0.00 | 61 | 1013.8 |
| 20260503054554 | 46 | 203 | 0.0 | 2.6 | 0.00 | 0.00 | 0.00 | 62 | 1013.9 |
| 20260503053052 | 46 | 269 | 0.0 | 0.9 | 0.00 | 0.00 | 0.00 | 64 | 1014.1 |
| 20260503051550 | 46 | 251 | 0.0 | 1.7 | 0.00 | 0.00 | 0.00 | 64 | 1014.3 |
| 20260503050047 | 46 | 251 | 0.0 | 1.7 | 0.00 | 0.00 | 0.00 | 65 | 1014.4 |